Home > Weather > Peoria > Past weeks

Flag for U.S.A. Weather for the Past 2 Weeks in Peoria, Illinois, U.S.A.

Now
19 °F

Overcast.


Feels Like: 10 °F
Forecast: 15 / 25 °F
Wind: 7 mph from South

Location: Greater Peoria Regional Airport

Current Time: Feb 14, 2016 at 2:58:59 AM

Latest Report: Feb 14, 2016 at 1:54 AM


Visibility: 10 mi

Pressure: 30.44 "Hg

Humidity: 49%

Dew point: 3 °F

Location of PeoriaLocation

Historic Weather in Peoria — Graph

°F

Peoria Temperature Yesterday

Maximum temperature yesterday: 20 °F (at 1:54 PM)
Minimum temperature yesterday: 5 °F (at 5:54 AM)
Average temperature yesterday: 14 °F

High & Low Weather Summary for the Past Weeks

 TemperatureHumidityPressure
High54 °F (Jan 31, 12:54 PM)97% (Feb 2, 9:54 PM)30.70 "Hg (Feb 2, 9:54 PM)
Low5 °F (Feb 13, 5:54 AM)31% (Feb 13, 1:54 PM)29.48 "Hg (Feb 2, 2:54 PM)
Average29 °F69%30.06 "Hg
* Reported Jan 30 12:54 AM — Feb 14 12:54 AM, Peoria, Weather by CustomWeather, © 2016

Note: Actual official high and low records may vary slightly from our data, if they occured in-between our weather recording intervals... More about our weather records

Advertising

Peoria Weather History for the Previous 24 Hours

 ConditionsComfort  
Time TempWeatherWind HumidityBarometerVisibility
12:54 AM
Sun, Feb 14
19 °FOvercast.8 mph43%30.45 "Hg10 mi
11:54 PM
Sat, Feb 13
19 °FOvercast.7 mph43%30.47 "Hg10 mi
10:54 PM18 °FPassing clouds.8 mph43%30.47 "Hg10 mi
9:54 PM18 °FPassing clouds.5 mph43%30.49 "Hg10 mi
8:54 PM18 °FClear.6 mph43%30.51 "Hg10 mi
7:54 PM18 °FClear.5 mph41%30.52 "Hg10 mi
6:54 PM18 °FClear.No wind39%30.54 "Hg10 mi
5:54 PM18 °FClear.No wind37%30.55 "Hg10 mi
4:54 PM20 °FSunny.3 mph31%30.56 "Hg10 mi
3:54 PM20 °FSunny.No wind31%30.58 "Hg10 mi
2:54 PM20 °FSunny.6 mph31%30.60 "Hg10 mi
1:54 PM20 °FSunny.7 mph31%30.61 "Hg10 mi
12:54 PM18 °FSunny.5 mph34%30.64 "Hg10 mi
11:54 AM17 °FSunny.6 mph33%30.66 "Hg10 mi
10:54 AM15 °FSunny.6 mph35%30.69 "Hg10 mi
9:54 AM12 °FSunny.8 mph38%30.69 "Hg10 mi
8:54 AM9 °FSunny.6 mph45%30.70 "Hg10 mi
7:54 AM6 °FSunny.5 mph52%30.69 "Hg10 mi
6:54 AM5 °FClear.3 mph57%30.68 "Hg10 mi
5:54 AM5 °FClear.3 mph60%30.66 "Hg10 mi
4:54 AM6 °FClear.5 mph52%30.66 "Hg10 mi
3:54 AM7 °FClear.6 mph52%30.64 "Hg10 mi
2:54 AM8 °FClear.8 mph54%30.62 "Hg10 mi
Weather by CustomWeather, © 2016

See weather overviewHow to use our weather pages